DW7980 Weather Reports


Display with metric or nautical units.
time (UTC)temp
F
wind
direction
speed
MPH
gust
MPH
rain 1hr
in
rain 24hr
in
rain mn
in
humidity
%
barometer
mb
20260901231041 68 215 1.0 7.0 0.00 0.00 0.00 64 1011.5
20260901230539 68 176 2.0 7.0 0.00 0.00 0.00 64 1011.5
20260901230135 68 182 1.0 5.0 0.00 0.00 0.00 64 1011.5
20260901225538 68 194 0.0 5.0 0.00 0.00 0.00 63 1011.5
20260901225038 68 221 1.0 5.0 0.00 0.00 0.00 63 1011.6
20260901224601 68 0 0.0 5.0 0.00 0.00 0.00 63 1011.6
20260901224041 68 136 1.0 7.0 0.00 0.00 0.00 62 1011.5
20260901223538 68 178 1.0 7.0 0.00 0.00 0.00 62 1011.6
20260901223111 68 198 1.0 8.0 0.00 0.00 0.00 61 1011.5
20260901222538 68 132 3.0 8.0 0.00 0.00 0.00 61 1011.5
20260901222037 69 171 2.0 8.0 0.00 0.00 0.00 61 1011.5
20260901221556 68 0 2.0 8.0 0.00 0.00 0.00 62 1011.5
20260901221039 68 64 1.0 4.0 0.00 0.00 0.00 62 1011.6
20260901220538 68 181 2.0 6.0 0.00 0.00 0.00 62 1011.6
20260901220108 68 190 2.0 6.0 0.00 0.00 0.00 62 1011.6
20260901215539 68 142 2.0 7.0 0.00 0.00 0.00 62 1011.5
20260901215038 68 188 1.0 7.0 0.00 0.00 0.00 63 1011.6
20260901214600 68 188 3.0 7.0 0.00 0.00 0.00 62 1011.5
20260901214038 68 154 2.0 6.0 0.00 0.00 0.00 62 1011.5
20260901213538 68 171 0.0 9.0 0.00 0.00 0.00 62 1011.7
20260901213059 68 180 2.0 9.0 0.00 0.00 0.00 62 1011.6
20260901212542 68 164 1.0 9.0 0.00 0.00 0.00 62 1011.7
20260901212039 69 175 3.0 8.0 0.00 0.00 0.00 60 1011.7
20260901211556 70 82 2.0 9.0 0.00 0.00 0.00 60 1011.6
20260901211040 70 109 1.0 9.0 0.00 0.00 0.00 60 1011.5
20260901210542 70 176 4.0 9.0 0.00 0.00 0.00 60 1011.7
20260901210059 70 288 2.0 9.0 0.00 0.00 0.00 62 1011.7
20260901205539 69 79 2.0 9.0 0.00 0.00 0.00 63 1011.6
20260901205039 69 0 4.0 8.0 0.00 0.00 0.00 62 1011.7
20260901204558 69 176 2.0 7.0 0.00 0.00 0.00 62 1011.8
20260901204043 71 225 2.0 7.0 0.00 0.00 0.00 61 1011.8
20260901203541 70 175 1.0 7.0 0.00 0.00 0.00 64 1011.9
20260901203056 68 119 2.0 7.0 0.00 0.00 0.00 67 1011.8
20260901202540 67 170 1.0 6.0 0.00 0.00 0.00 69 1011.9
20260901202038 66 157 1.0 5.0 0.00 0.00 0.00 69 1012.0
20260901201550 66 162 1.0 9.0 0.00 0.00 0.00 69 1012.0
20260901201039 65 171 2.0 9.0 0.00 0.00 0.00 70 1012.1
20260901200539 65 211 1.0 7.0 0.00 0.00 0.00 70 1012.1
20260901200106 65 167 1.0 6.0 0.00 0.00 0.00 70 1012.1
20260901195538 65 169 2.0 6.0 0.00 0.00 0.00 71 1012.1
20260901195040 64 171 1.0 9.0 0.00 0.00 0.00 73 1012.2
20260901194607 64 0 2.0 9.0 0.00 0.00 0.00 73 1012.2
20260901194038 64 166 1.0 6.0 0.00 0.00 0.00 73 1012.3
20260901193541 64 178 1.0 6.0 0.00 0.00 0.00 73 1012.3
20260901193058 64 170 2.0 8.0 0.00 0.00 0.00 73 1012.3
20260901192538 64 166 2.0 8.0 0.00 0.00 0.00 73 1012.3
20260901192040 64 156 1.0 4.0 0.00 0.00 0.00 74 1012.5
20260901191603 64 0 1.0 5.0 0.00 0.00 0.00 74 1012.5
20260901191041 64 163 1.0 5.0 0.00 0.00 0.00 74 1012.4
20260901190538 64 173 2.0 5.0 0.00 0.00 0.00 75 1012.5
20260901190111 63 216 0.0 3.0 0.00 0.00 0.00 76 1012.4
20260901185539 63 178 1.0 4.0 0.00 0.00 0.00 76 1012.5
20260901185043 63 197 1.0 5.0 0.00 0.00 0.00 76 1012.6
20260901184602 63 0 0.0 5.0 0.00 0.00 0.00 76 1012.7
20260901184040 63 181 2.0 5.0 0.00 0.00 0.00 75 1012.8
20260901183545 64 175 1.0 8.0 0.00 0.00 0.00 75 1012.7
20260901183110 64 167 1.0 8.0 0.00 0.00 0.00 75 1012.7
20260901182541 64 0 0.0 5.0 0.00 0.00 0.00 76 1012.8
20260901182042 63 0 1.0 5.0 0.00 0.00 0.00 77 1012.7
20260901181604 63 175 2.0 5.0 0.00 0.00 0.00 77 1012.7
20260901181038 63 177 1.0 7.0 0.00 0.00 0.00 77 1012.8
20260901180538 62 0 1.0 7.0 0.00 0.00 0.00 79 1012.8
20260901180108 62 161 2.0 7.0 0.00 0.00 0.00 78 1012.9
20260901175543 61 195 2.0 6.0 0.00 0.00 0.00 79 1012.9
20260901175039 61 175 1.0 5.0 0.00 0.00 0.00 80 1013.0
20260901174601 61 0 0.0 3.0 0.00 0.00 0.00 82 1012.9
20260901174039 61 0 1.0 3.0 0.00 0.00 0.00 82 1013.0
20260901173540 60 186 0.0 1.0 0.00 0.00 0.00 82 1012.9
20260901173111 60 0 0.0 1.0 0.00 0.00 0.00 82 1012.8
20260901172539 60 0 0.0 2.0 0.00 0.00 0.00 82 1012.8
20260901172042 60 0 0.0 2.0 0.00 0.00 0.00 82 1012.8
20260901171608 60 0 0.0 2.0 0.00 0.00 0.00 82 1012.6
20260901171043 60 186 0.0 3.0 0.00 0.00 0.00 82 1012.7
20260901170539 60 0 0.0 3.0 0.00 0.00 0.00 82 1012.6
20260901170106 60 186 0.0 4.0 0.00 0.00 0.00 82 1012.6
20260901165538 60 0 0.0 4.0 0.00 0.00 0.00 82 1012.6
20260901165041 60 123 1.0 5.0 0.00 0.00 0.00 82 1012.7
20260901164633 60 173 1.0 5.0 0.00 0.00 0.00 82 1012.7
20260901164040 60 254 1.0 5.0 0.00 0.00 0.00 82 1012.7
20260901163542 60 0 1.0 4.0 0.00 0.00 0.00 83 1012.7
20260901163059 59 0 1.0 4.0 0.00 0.00 0.00 83 1012.7
20260901162538 59 0 1.0 4.0 0.00 0.00 0.00 83 1012.7
20260901162038 59 174 1.0 3.0 0.00 0.00 0.00 82 1012.7
20260901161554 59 205 1.0 5.0 0.00 0.00 0.00 82 1012.7
20260901161039 59 191 1.0 5.0 0.00 0.00 0.00 82 1012.7
20260901160538 59 194 1.0 3.0 0.00 0.00 0.00 82 1012.7
20260901160100 59 196 1.0 4.0 0.00 0.00 0.00 81 1012.6
20260901155539 59 199 1.0 6.0 0.00 0.00 0.00 81 1012.7
20260901155039 59 217 2.0 6.0 0.00 0.00 0.00 81 1012.7
20260901154551 59 171 1.0 4.0 0.00 0.00 0.00 81 1012.7
20260901154039 60 186 1.0 5.0 0.00 0.00 0.00 81 1012.6
20260901153539 59 186 0.0 5.0 0.00 0.00 0.00 80 1012.7
20260901153103 60 184 1.0 2.0 0.00 0.00 0.00 80 1012.6
20260901152538 60 183 0.0 3.0 0.00 0.00 0.00 80 1012.5
20260901152039 59 183 1.0 3.0 0.00 0.00 0.00 80 1012.6
20260901151558 59 184 1.0 3.0 0.00 0.00 0.00 80 1012.4
20260901151039 59 184 1.0 3.0 0.00 0.00 0.00 80 1012.4
20260901150538 59 0 0.0 2.0 0.00 0.00 0.00 80 1012.3
20260901150054 59 0 0.0 2.0 0.00 0.00 0.00 80 1012.4
20260901145544 59 0 0.0 2.0 0.00 0.00 0.00 80 1012.3
20260901145039 59 192 0.0 3.0 0.00 0.00 0.00 80 1012.3
20260901144605 59 192 1.0 3.0 0.00 0.00 0.00 80 1012.2
20260901144041 59 192 1.0 3.0 0.00 0.00 0.00 80 1012.2
20260901143541 59 195 1.0 3.0 0.00 0.00 0.00 81 1012.2
20260901143103 59 0 0.0 3.0 0.00 0.00 0.00 81 1012.2
20260901142540 59 191 1.0 3.0 0.00 0.00 0.00 81 1012.2
20260901142038 59 192 1.0 5.0 0.00 0.00 0.00 81 1012.2
20260901141604 59 189 1.0 5.0 0.00 0.00 0.00 81 1012.1
20260901141039 59 180 1.0 3.0 0.00 0.00 0.00 81 1012.2
20260901140540 59 179 1.0 4.0 0.00 0.00 0.00 81 1012.1
20260901140100 59 179 2.0 5.0 0.00 0.00 0.00 81 1012.2
20260901135539 59 0 1.0 5.0 0.00 0.00 0.00 81 1012.2
20260901135041 59 175 1.0 5.0 0.00 0.00 0.00 81 1012.2
20260901134600 59 153 1.0 5.0 0.00 0.00 0.00 81 1012.1
20260901134039 59 203 1.0 5.0 0.00 0.00 0.00 81 1012.1
20260901133539 59 185 1.0 5.0 0.00 0.00 0.00 81 1012.1
20260901133053 59 179 0.0 3.0 0.00 0.00 0.00 81 1012.1
20260901132541 59 0 0.0 4.0 0.00 0.00 0.00 81 1012.1
20260901132039 59 0 1.0 5.0 0.00 0.00 0.00 81 1012.1
20260901131611 59 179 1.0 5.0 0.00 0.00 0.00 81 1012.0
20260901131039 59 213 1.0 3.0 0.00 0.00 0.00 81 1012.0
20260901130539 59 213 1.0 4.0 0.00 0.00 0.00 81 1012.0
20260901130059 59 209 1.0 4.0 0.00 0.00 0.00 81 1012.0
20260901125539 59 216 0.0 4.0 0.00 0.00 0.00 81 1011.9
20260901125039 59 215 1.0 4.0 0.00 0.00 0.00 81 1011.9
20260901124604 58 178 1.0 4.0 0.00 0.00 0.00 81 1011.9
20260901124040 58 189 1.0 5.0 0.00 0.00 0.00 81 1011.8
20260901123543 58 183 1.0 5.0 0.00 0.00 0.00 82 1011.8
20260901123104 58 165 1.0 5.0 0.00 0.00 0.00 82 1011.9
20260901122539 58 207 0.0 4.0 0.00 0.00 0.00 82 1011.8
20260901122038 58 180 1.0 5.0 0.00 0.00 0.00 82 1011.9
20260901121613 58 180 1.0 6.0 0.00 0.00 0.00 82 1011.9
20260901121038 58 228 2.0 6.0 0.00 0.00 0.00 82 1011.9
20260901120540 58 0 2.0 4.0 0.00 0.00 0.00 82 1011.9
20260901120111 58 212 2.0 3.0 0.00 0.00 0.00 82 1011.9
20260901115539 58 242 0.0 5.0 0.00 0.00 0.00 82 1011.9
20260901115039 58 192 0.0 5.0 0.00 0.00 0.00 82 1012.0
20260901114601 58 175 1.0 6.0 0.00 0.00 0.00 82 1011.9
20260901114038 58 196 1.0 6.0 0.00 0.00 0.00 82 1012.0
20260901113539 58 172 1.0 4.0 0.00 0.00 0.00 83 1012.0
20260901113053 58 200 1.0 4.0 0.00 0.00 0.00 83 1011.9
20260901112539 58 198 1.0 5.0 0.00 0.00 0.00 83 1011.9
20260901112038 57 208 1.0 5.0 0.00 0.00 0.00 83 1011.9
20260901111610 57 175 1.0 4.0 0.00 0.00 0.00 83 1011.8
20260901111041 57 0 0.0 4.0 0.00 0.00 0.00 83 1011.8
20260901110540 57 0 1.0 4.0 0.00 0.00 0.00 83 1011.8
20260901105539 57 216 0.0 5.0 0.00 0.00 0.00 83 1011.8
20260901105040 57 217 1.0 5.0 0.00 0.00 0.00 83 1011.7
20260901104556 57 244 0.0 4.0 0.00 0.00 0.00 83 1011.6
20260901104039 57 189 1.0 4.0 0.00 0.00 0.00 83 1011.6
20260901103539 57 205 1.0 4.0 0.00 0.00 0.00 83 1011.6
20260901103111 57 198 1.0 5.0 0.00 0.00 0.00 83 1011.6
20260901102538 57 209 2.0 6.0 0.00 0.00 0.00 82 1011.6
20260901102038 57 184 2.0 7.0 0.00 0.00 0.00 82 1011.6
20260901101602 57 182 2.0 7.0 0.00 0.00 0.00 82 1011.5
20260901101039 58 204 1.0 5.0 0.00 0.00 0.00 82 1011.5
20260901100539 58 233 2.0 5.0 0.00 0.00 0.00 82 1011.5
20260901100056 58 175 2.0 5.0 0.00 0.00 0.00 82 1011.5
20260901095538 58 207 1.0 4.0 0.00 0.00 0.00 81 1011.6
20260901095039 58 179 1.0 4.0 0.00 0.00 0.00 81 1011.5
20260901094600 58 180 2.0 5.0 0.00 0.00 0.00 81 1011.4
20260901094038 58 193 1.0 6.0 0.00 0.00 0.00 81 1011.4
20260901093539 58 167 2.0 7.0 0.00 0.00 0.00 81 1011.5
20260901093127 58 190 2.0 7.0 0.00 0.00 0.00 81 1011.4
20260901092539 58 197 2.0 7.0 0.00 0.00 0.00 81 1011.3
20260901092039 58 185 2.0 6.0 0.00 0.00 0.00 81 1011.3
20260901091603 58 209 2.0 6.0 0.00 0.00 0.00 81 1011.2
20260901091038 58 173 1.0 5.0 0.00 0.00 0.00 80 1011.1
20260901090541 59 175 2.0 4.0 0.00 0.00 0.00 80 1011.1
20260901090052 59 173 1.0 5.0 0.00 0.00 0.00 80 1011.1
20260901085540 59 172 2.0 5.0 0.00 0.00 0.00 80 1010.9
20260901085039 59 199 1.0 2.0 0.00 0.00 0.00 80 1010.8
20260901084558 59 199 0.0 3.0 0.00 0.00 0.00 80 1010.8
20260901084039 59 0 0.0 3.0 0.00 0.00 0.00 80 1010.7
20260901083543 59 186 0.0 5.0 0.00 0.00 0.00 80 1010.7
20260901083059 59 185 1.0 5.0 0.00 0.00 0.00 80 1010.8
20260901082538 59 187 1.0 3.0 0.00 0.00 0.00 80 1010.7
20260901082038 59 187 1.0 4.0 0.00 0.00 0.00 80 1010.8
20260901081605 59 187 1.0 5.0 0.00 0.00 0.00 79 1010.8
20260901081041 59 227 1.0 5.0 0.00 0.00 0.00 79 1010.9
20260901080543 60 217 2.0 5.0 0.00 0.00 0.00 79 1011.0
20260901080104 60 196 2.0 6.0 0.00 0.00 0.00 78 1010.8
20260901075540 60 238 2.0 6.0 0.00 0.00 0.00 78 1010.8
20260901075040 60 190 2.0 6.0 0.00 0.00 0.00 78 1010.8
20260901074626 60 229 2.0 7.0 0.00 0.00 0.00 78 1010.7
20260901074039 60 202 3.0 7.0 0.00 0.00 0.00 77 1010.6
20260901073539 60 173 3.0 10.0 0.00 0.00 0.00 77 1010.6
20260901073058 60 192 2.0 10.0 0.00 0.00 0.00 77 1010.6
20260901072540 61 227 2.0 8.0 0.00 0.00 0.00 76 1010.6
20260901072041 61 221 3.0 8.0 0.00 0.00 0.00 76 1010.6
20260901071606 61 170 2.0 8.0 0.00 0.00 0.00 76 1010.6
20260901071044 61 188 1.0 4.0 0.00 0.00 0.00 75 1010.6
20260901070538 61 176 1.0 4.0 0.00 0.00 0.00 75 1010.6
20260901070107 62 223 1.0 10.0 0.00 0.00 0.00 74 1010.5
20260901065539 62 229 3.0 10.0 0.00 0.00 0.00 74 1010.5
20260901065041 62 0 1.0 13.0 0.00 0.00 0.00 73 1010.4
20260901064555 63 165 2.0 13.0 0.00 0.00 0.00 73 1010.2
20260901064043 63 219 2.0 6.0 0.00 0.00 0.00 72 1010.2
20260901063538 63 219 1.0 8.0 0.00 0.00 0.00 71 1010.2
20260901063100 63 217 2.0 8.0 0.00 0.00 0.00 71 1010.0
20260901062538 64 190 3.0 9.0 0.00 0.00 0.00 71 1010.0
20260901062039 64 213 2.0 9.0 0.00 0.00 0.00 70 1009.9
20260901061604 64 198 1.0 9.0 0.00 0.00 0.00 70 1009.8
20260901061039 64 190 2.0 9.0 0.00 0.00 0.00 69 1009.8
20260901060539 65 172 1.0 9.0 0.00 0.00 0.00 69 1009.8
20260901060100 65 221 1.0 7.0 0.00 0.00 0.00 68 1009.7
20260901055540 65 200 1.0 9.0 0.00 0.00 0.00 68 1009.7
20260901055039 65 184 2.0 9.0 0.00 0.00 0.00 68 1009.8
20260901054603 66 194 3.0 9.0 0.00 0.00 0.00 67 1009.8
20260901054039 66 189 3.0 7.0 0.00 0.00 0.00 67 1009.8
20260901053540 66 203 3.0 7.0 0.00 0.00 0.00 66 1009.7
20260901053122 67 190 2.0 7.0 0.00 0.00 0.00 66 1009.7
20260901052539 67 223 1.0 6.0 0.00 0.00 0.00 65 1009.6
20260901052039 67 232 1.0 4.0 0.00 0.00 0.00 65 1009.7
20260901051604 67 219 1.0 4.0 0.00 0.00 0.00 64 1009.6
20260901051039 68 219 1.0 8.0 0.00 0.00 0.00 64 1009.5
20260901050542 68 218 3.0 8.0 0.00 0.00 0.00 64 1009.4
20260901050108 68 189 2.0 7.0 0.00 0.00 0.00 65 1009.3
20260901045538 67 234 3.0 9.0 0.00 0.00 0.00 65 1009.2
20260901045038 67 190 2.0 9.0 0.00 0.00 0.00 65 1009.2
20260901044602 67 184 1.0 4.0 0.00 0.00 0.00 65 1009.1
20260901044040 67 194 1.0 3.0 0.00 0.00 0.00 65 1009.1
20260901043541 66 194 1.0 3.0 0.00 0.00 0.00 65 1009.0
20260901043125 66 194 0.0 3.0 0.00 0.00 0.00 64 1009.0
20260901042538 67 206 0.0 2.0 0.00 0.00 0.00 63 1009.0
20260901042038 67 0 0.0 2.0 0.00 0.00 0.00 63 1008.9
20260901041611 67 206 0.0 2.0 0.00 0.00 0.00 62 1008.8
20260901041039 68 0 0.0 0.0 0.00 0.00 0.00 61 1008.7
20260901040539 68 0 0.0 0.0 0.00 0.00 0.00 60 1008.5
20260901040104 69 0 0.0 0.0 0.00 0.00 0.00 60 1008.5
20260901035537 69 0 0.0 0.0 0.00 0.00 0.00 59 1008.4
20260901035041 69 0 0.0 0.0 0.00 0.00 0.00 58 1008.3
20260901034604 70 0 0.0 1.0 0.00 0.00 0.00 58 1008.3
20260901034038 70 0 0.0 1.0 0.00 0.00 0.00 57 1008.3
20260901033538 70 0 0.0 1.0 0.00 0.00 0.00 57 1008.2
20260901033108 71 207 0.0 1.0 0.00 0.00 0.00 57 1008.2
20260901032543 71 0 0.0 1.0 0.00 0.00 0.00 55 1008.1
20260901032039 72 0 0.0 1.0 0.00 0.00 0.00 54 1008.1
20260901031558 72 0 0.0 1.0 0.00 0.00 0.00 53 1007.9
20260901031039 73 0 0.0 0.0 0.00 0.00 0.00 53 1007.9
20260901030539 73 0 0.0 1.0 0.00 0.00 0.00 52 1007.8
20260901030055 74 0 0.0 1.0 0.00 0.00 0.00 52 1007.8
20260901025542 74 0 0.0 1.0 0.00 0.00 0.00 50 1007.9
20260901025039 75 207 0.0 1.0 0.00 0.00 0.00 49 1007.8
20260901024555 75 0 0.0 1.0 0.00 0.00 0.00 49 1007.8
20260901024043 75 207 0.0 1.0 0.00 0.00 0.00 48 1007.8
20260901023539 76 0 0.0 0.0 0.00 0.00 0.00 47 1007.9
20260901023052 76 0 0.0 1.0 0.00 0.00 0.00 47 1007.9
20260901022539 76 0 0.0 1.0 0.00 0.00 0.00 46 1007.9
20260901022039 77 0 0.0 1.0 0.00 0.00 0.00 46 1007.8
20260901021558 77 0 0.0 1.0 0.00 0.00 0.00 46 1007.9
20260901021039 77 0 0.0 2.0 0.00 0.00 0.00 45 1007.9
20260901020541 78 0 0.0 3.0 0.00 0.00 0.00 45 1007.9
20260901020056 78 207 1.0 3.0 0.00 0.00 0.00 45 1007.9
20260901015538 78 181 1.0 3.0 0.00 0.00 0.00 44 1007.9
20260901015041 78 0 0.0 3.0 0.00 0.00 0.00 44 1007.9
20260901014605 79 228 0.0 3.0 0.00 0.00 0.00 43 1007.9
20260901014038 79 192 0.0 3.0 0.00 0.00 0.00 43 1007.9
20260901013538 79 195 1.0 4.0 0.00 0.00 0.00 43 1007.9
20260901013100 79 0 0.0 4.0 0.00 0.00 0.00 41 1007.9
20260901012538 79 189 0.0 3.0 0.00 0.00 0.00 42 1007.9
20260901012039 79 0 0.0 2.0 0.00 0.00 0.00 45 1008.0
20260901011559 79 0 0.0 4.0 0.00 0.00 0.00 44 1008.1
20260901011042 80 0 0.0 5.0 0.00 0.00 0.00 43 1008.0
20260901010541 80 188 2.0 5.0 0.00 0.00 0.00 42 1008.0
20260901005541 80 173 1.0 7.0 0.00 0.00 0.00 43 1008.0
20260901005039 80 226 1.0 7.0 0.00 0.00 0.00 42 1008.1
20260901004600 80 177 2.0 6.0 0.00 0.00 0.00 43 1008.1
20260901004040 80 121 0.0 5.0 0.00 0.00 0.00 44 1008.1
20260901003540 80 0 1.0 6.0 0.00 0.00 0.00 43 1008.1
20260901003103 81 0 0.0 6.0 0.00 0.00 0.00 43 1008.1
20260901002541 81 184 2.0 5.0 0.00 0.00 0.00 43 1008.0
20260901002038 81 223 2.0 4.0 0.00 0.00 0.00 42 1008.0
20260901001601 81 195 1.0 5.0 0.00 0.00 0.00 42 1008.1
20260901001041 81 178 1.0 6.0 0.00 0.00 0.00 43 1008.1
20260901000545 81 171 3.0 6.0 0.00 0.00 0.00 42 1008.1
20260901000057 81 0 1.0 3.0 0.00 0.00 0.00 44 1008.0
20260831235541 81 233 1.0 3.0 0.00 0.00 0.00 44 1008.1
20260831235039 81 184 1.0 7.0 0.00 0.00 0.00 43 1008.2
20260831234605 81 181 1.0 7.0 0.00 0.00 0.00 43 1008.2
20260831234039 81 167 3.0 5.0 0.00 0.00 0.00 42 1008.2
20260831233543 81 323 2.0 5.0 0.00 0.00 0.00 43 1008.2
20260831233053 81 85 0.0 4.0 0.00 0.00 0.00 45 1008.2
20260831232539 81 0 0.0 6.0 0.00 0.00 0.00 45 1008.1
20260831232038 81 0 0.0 7.0 0.00 0.00 0.00 44 1008.1
20260831231557 82 223 3.0 7.0 0.00 0.00 0.00 43 1008.1